When you browse on this site, cookies collect data to enhance your experience and personalize the content and advertising you see.
Visit our Privacy Policy to learn more. By continuing to use the site, you agree to this use of cookies and data.
EN

Hourly Weather Saidpur

Today, 8 July, Wednesday

Time Temperature Precipitation Wind Pressure Humidity
00:00 +31°C° 0 mm 3 mps 750 mmHg 80%
01:00 +31°C° 1.1 mm 3 mps 750 mmHg 82%
02:00 +30°C° 1.1 mm 3 mps 749 mmHg 83%
03:00 +30°C° 1.1 mm 2 mps 749 mmHg 85%
04:00 +30°C° 1.5 mm 2 mps 749 mmHg 85%
05:00 +30°C° 1.5 mm 2 mps 749 mmHg 85%
06:00 +30°C° 0 mm 2 mps 749 mmHg 85%
07:00 +31°C° 0.1 mm 2 mps 749 mmHg 79%
08:00 +32°C° 0.1 mm 2 mps 749 mmHg 73%
09:00 +34°C° 0.1 mm 2 mps 749 mmHg 67%
10:00 +35°C° 0 mm 2 mps 749 mmHg 63%
11:00 +36°C° 0 mm 3 mps 749 mmHg 58%
12:00 +38°C° 0 mm 3 mps 748 mmHg 54%
13:00 +38°C° 0.1 mm 3 mps 748 mmHg 53%
14:00 +38°C° 0.1 mm 3 mps 747 mmHg 53%
15:00 +38°C° 0.1 mm 3 mps 746 mmHg 52%
16:00 +38°C° 0.1 mm 3 mps 746 mmHg 54%
17:00 +38°C° 0.1 mm 3 mps 746 mmHg 56%
18:00 +37°C° 0.1 mm 3 mps 746 mmHg 58%
19:00 +36°C° 0.3 mm 2 mps 746 mmHg 62%
20:00 +36°C° 0.3 mm 2 mps 747 mmHg 66%
21:00 +35°C° 0.3 mm 2 mps 747 mmHg 70%
22:00 +34°C° 0.6 mm 2 mps 747 mmHg 72%
23:00 +34°C° 0.6 mm 2 mps 747 mmHg 73%

Tomorrow, 9 July, Thursday

Time Temperature Precipitation Wind Pressure Humidity
00:00 +34°C° 0.6 mm 2 mps 747 mmHg 74%
01:00 +32°C° 1.5 mm 2 mps 746 mmHg 75%
02:00 +33°C° 1.5 mm 3 mps 746 mmHg 77%
03:00 +33°C° 1.5 mm 3 mps 745 mmHg 78%
04:00 +31°C° 3.3 mm 3 mps 745 mmHg 79%
05:00 +31°C° 3.3 mm 3 mps 745 mmHg 81%
06:00 +31°C° 3.3 mm 3 mps 745 mmHg 82%
07:00 +31°C° 1 mm 2 mps 745 mmHg 81%
08:00 +31°C° 1 mm 2 mps 746 mmHg 80%
09:00 +32°C° 1 mm 2 mps 746 mmHg 78%
10:00 +32°C° 1.1 mm 2 mps 746 mmHg 76%
11:00 +34°C° 1.1 mm 2 mps 746 mmHg 73%
12:00 +34°C° 1.1 mm 2 mps 745 mmHg 71%
13:00 +34°C° 1.7 mm 2 mps 745 mmHg 73%
14:00 +33°C° 1.7 mm 3 mps 745 mmHg 76%
15:00 +33°C° 1.7 mm 3 mps 745 mmHg 78%
16:00 +32°C° 0.8 mm 4 mps 744 mmHg 81%
17:00 +32°C° 0.8 mm 4 mps 744 mmHg 83%
18:00 +30°C° 0.8 mm 5 mps 744 mmHg 86%
19:00 +30°C° 0.3 mm 6 mps 745 mmHg 87%
20:00 +30°C° 0.3 mm 7 mps 745 mmHg 87%
21:00 +30°C° 0.3 mm 7 mps 746 mmHg 88%
22:00 +29°C° 0.4 mm 7 mps 745 mmHg 88%
23:00 +29°C° 0.4 mm 7 mps 745 mmHg 89%

Day after tomorrow, 10 July, Friday

Time Temperature Precipitation Wind Pressure Humidity
00:00 +29°C° 0.4 mm 6 mps 745 mmHg 89%
01:00 +29°C° 1.8 mm 6 mps 745 mmHg 89%
02:00 +29°C° 1.8 mm 6 mps 744 mmHg 89%
03:00 +29°C° 1.8 mm 5 mps 744 mmHg 89%
04:00 +29°C° 1.3 mm 5 mps 744 mmHg 89%
05:00 +29°C° 1.3 mm 4 mps 744 mmHg 89%
06:00 +29°C° 1.3 mm 4 mps 744 mmHg 89%
07:00 +30°C° 1.4 mm 4 mps 745 mmHg 87%
08:00 +30°C° 1.4 mm 4 mps 745 mmHg 86%
09:00 +30°C° 1.4 mm 4 mps 746 mmHg 85%
10:00 +32°C° 1.5 mm 4 mps 746 mmHg 84%
11:00 +31°C° 1.5 mm 3 mps 746 mmHg 83%
12:00 +31°C° 1.5 mm 3 mps 746 mmHg 82%
13:00 +31°C° 2.8 mm 2 mps 746 mmHg 83%
14:00 +31°C° 2.8 mm 1 mps 745 mmHg 85%
15:00 +31°C° 2.8 mm 1 mps 745 mmHg 86%
16:00 +30°C° 3 mm 1 mps 745 mmHg 88%
17:00 +29°C° 3 mm 2 mps 745 mmHg 91%
18:00 +29°C° 3 mm 3 mps 745 mmHg 93%
19:00 +29°C° 1 mm 3 mps 745 mmHg 93%
20:00 +29°C° 1 mm 3 mps 746 mmHg 93%
21:00 +28°C° 1 mm 3 mps 746 mmHg 94%
22:00 +28°C° 1.3 mm 2 mps 746 mmHg 94%
23:00 +28°C° 1.3 mm 2 mps 746 mmHg 94%

11 July, Saturday

Time Temperature Precipitation Wind Pressure Humidity
00:00 +28°C° 1.3 mm 2 mps 746 mmHg 95%
01:00 +28°C° 1 mm 2 mps 745 mmHg 95%
02:00 +28°C° 1 mm 2 mps 745 mmHg 94%
03:00 +28°C° 1 mm 2 mps 744 mmHg 94%
04:00 +28°C° 1.2 mm 2 mps 744 mmHg 94%
05:00 +28°C° 1.2 mm 2 mps 745 mmHg 95%
06:00 +28°C° 1.2 mm 2 mps 745 mmHg 95%
07:00 +28°C° 1 mm 2 mps 745 mmHg 94%
08:00 +28°C° 1 mm 2 mps 746 mmHg 93%
09:00 +28°C° 1 mm 1 mps 746 mmHg 92%
10:00 +28°C° 0.9 mm 2 mps 746 mmHg 92%
11:00 +28°C° 0.9 mm 2 mps 746 mmHg 91%
12:00 +29°C° 0.9 mm 2 mps 747 mmHg 91%
13:00 +29°C° 0.5 mm 2 mps 746 mmHg 90%
14:00 +29°C° 0.5 mm 2 mps 746 mmHg 90%
15:00 +29°C° 0.5 mm 2 mps 746 mmHg 90%
16:00 +29°C° 0 mm 1 mps 746 mmHg 90%
17:00 +28°C° 0 mm 1 mps 746 mmHg 91%
18:00 +28°C° 0 mm 1 mps 746 mmHg 91%
19:00 +28°C° 0 mm 1 mps 746 mmHg 91%
20:00 +28°C° 0 mm 1 mps 747 mmHg 92%
21:00 +28°C° 0 mm 1 mps 747 mmHg 92%
22:00 +28°C° 0.3 mm 1 mps 747 mmHg 92%
23:00 +28°C° 0.3 mm 1 mps 747 mmHg 91%

12 July, Sunday

Time Temperature Precipitation Wind Pressure Humidity
00:00 +28°C° 0.3 mm 2 mps 747 mmHg 91%
01:00 +28°C° 0.2 mm 1 mps 747 mmHg 91%
02:00 +28°C° 0.2 mm 1 mps 746 mmHg 91%
03:00 +28°C° 0.2 mm 1 mps 746 mmHg 91%
04:00 +28°C° 1.1 mm 1 mps 746 mmHg 91%
05:00 +28°C° 1.1 mm 1 mps 746 mmHg 91%
06:00 +28°C° 1.1 mm 1 mps 746 mmHg 92%
07:00 +28°C° 0.4 mm 1 mps 747 mmHg 92%
08:00 +28°C° 0.4 mm 2 mps 747 mmHg 92%
09:00 +28°C° 0.4 mm 2 mps 747 mmHg 91%
10:00 +29°C° 0.5 mm 2 mps 747 mmHg 87%
11:00 +30°C° 0.5 mm 2 mps 747 mmHg 83%
12:00 +31°C° 0.5 mm 2 mps 747 mmHg 78%
13:00 +31°C° 1.9 mm 2 mps 747 mmHg 79%
14:00 +31°C° 1.9 mm 2 mps 747 mmHg 81%
15:00 +31°C° 1.9 mm 2 mps 747 mmHg 82%
16:00 +30°C° 1.4 mm 2 mps 747 mmHg 84%
17:00 +30°C° 1.4 mm 3 mps 747 mmHg 87%
18:00 +29°C° 1.4 mm 3 mps 747 mmHg 89%
19:00 +29°C° 0.1 mm 3 mps 747 mmHg 89%
20:00 +29°C° 0.1 mm 3 mps 747 mmHg 90%
21:00 +29°C° 0.1 mm 3 mps 748 mmHg 90%
22:00 +29°C° 0.5 mm 3 mps 748 mmHg 90%
23:00 +29°C° 0.5 mm 3 mps 748 mmHg 89%

13 July, Monday

Time Temperature Precipitation Wind Pressure Humidity
00:00 +29°C° 0.5 mm 2 mps 748 mmHg 89%
01:00 +28°C° 1 mm 2 mps 747 mmHg 91%
02:00 +28°C° 1 mm 2 mps 747 mmHg 92%
03:00 +28°C° 1 mm 2 mps 746 mmHg 93%
04:00 +28°C° 0.2 mm 1 mps 746 mmHg 93%
05:00 +28°C° 0.2 mm 1 mps 747 mmHg 93%
06:00 +28°C° 0.2 mm 1 mps 747 mmHg 93%
07:00 +29°C° 0 mm 1 mps 747 mmHg 87%
08:00 +30°C° 0 mm 2 mps 748 mmHg 82%
09:00 +31°C° 0 mm 2 mps 748 mmHg 76%
10:00 +32°C° 1.1 mm 2 mps 748 mmHg 73%
11:00 +34°C° 1.1 mm 2 mps 748 mmHg 71%
12:00 +35°C° 1.1 mm 3 mps 748 mmHg 69%
13:00 +34°C° 3.1 mm 2 mps 748 mmHg 70%
14:00 +34°C° 3.1 mm 2 mps 748 mmHg 72%
15:00 +33°C° 3.1 mm 1 mps 747 mmHg 74%
16:00 +32°C° 2 mm 2 mps 747 mmHg 78%
17:00 +31°C° 2 mm 2 mps 747 mmHg 81%
18:00 +31°C° 2 mm 2 mps 747 mmHg 84%
19:00 +30°C° 1.3 mm 2 mps 748 mmHg 85%
20:00 +30°C° 1.3 mm 3 mps 749 mmHg 86%
21:00 +30°C° 1.3 mm 3 mps 749 mmHg 86%
22:00 +30°C° 1.5 mm 3 mps 749 mmHg 87%
23:00 +29°C° 1.5 mm 3 mps 749 mmHg 87%
Show more